Regional Weather Roundup
Issued by NWS Midland/Odessa, TX

Skip options and go directly to product.
Home | Oldest Version | Previous Version | Current Version | All | Graphics & Text | Save Text | Print | Product List | Glossary On

Skip product version selection by date and time.   
689
ASUS44 KMAF 210010
RWRMAF
MIDLAND AREA WEATHER ROUNDUP
NATIONAL WEATHER SERVICE MIDLAND TX
700 PM CDT MON OCT 20 2014

...IN SOUTHWEST TEXAS AND SOUTHEAST NEW MEXICO...

CITY           SKY/WX    TMP DP  RH WIND       PRES   REMARKS
ALPINE         CLOUDY    61  56  84 E5        30.15R
ANDREWS        FAIR      70  51  51 SE6       30.05S
ARTESIA        NOT AVBL
BIG SPRING     PTCLDY    74  53  47 E6        30.05S
CARLSBAD       LGT RAIN  62  59  90 CALM      30.06S FOG
DRYDEN           N/A     73  61  65 E9        29.99S
FORT STOCKTON  CLOUDY    67  61  81 SE5       30.04R
GUAD PASS      CLOUDY    58  55  90 E16       30.13F
HOBBS          MOCLDY    68  52  56 SE10      30.08R
MARFA          CLOUDY    57  55  94 E8        30.13R THUNDER
MIDLAND AIRPK  CLOUDY    75  52  44 SE8       30.05R
MIDLAND INTL   CLOUDY    75  52  44 E10       30.03S
ODESSA         CLOUDY    73  50  44 SE8       30.05R
PECOS          DRIZZLE   65  62  91 CALM      30.04R
PRESIDIO       CLOUDY    70  57  63 N15G21    29.96S
SEMINOLE       CLOUDY    70  51  51 SE8       30.08R
SNYDER         PTCLDY    74  55  51 E5        30.05R
WINK           CLOUDY    67  64  90 CALM      30.02F
$$
...OTHER STATIONS IN TEXAS...

CITY           SKY/WX    TMP DP  RH WIND       PRES   REMARKS
ABILENE        CLEAR     76  53  44 S8        30.03R
AMARILLO       PTCLDY    70  52  52 E7        30.07S
AUSTIN         MOCLDY    75  59  57 E5        29.99S
BROWNSVILLE    PTCLDY    80  68  66 NE9       29.90R
CORPUS CHRISTI MOCLDY    74  71  91 E5        29.95S
DALLAS FTW     MOCLDY    75  59  57 SE7       30.00S
DEL RIO        PTCLDY    77  63  61 S3        29.95F
EL PASO        MOCLDY    71  49  45 SE7       30.00S
HOUSTON INT    PTCLDY    70  59  68 VRB5      29.99S
LUBBOCK        PTCLDY    71  54  54 SE9       30.06S
SAN ANGELO     MOCLDY    77  53  43 E10       30.01S
SAN ANTONIO    MOCLDY    79  58  48 NE12      29.99R
WACO           PTCLDY    73  60  63 E6        30.01R
WICHITA FALLS  NOT AVBL
$$
...OTHER LOCATIONS IN NEW MEXICO...

CITY           SKY/WX    TMP DP  RH WIND       PRES   REMARKS
ALAMAGORDO     NOT AVBL
ALBUQUERQUE    CLOUDY    60  51  72 NE5       30.15S
CANNON AFB     CLOUDY    67  52  56 S6        30.12R
CLOVIS         MOCLDY    64  48  55 SE6       30.13R
HOLLOMAN AFB   NOT AVBL
ROSWELL        RAIN      61  55  81 S5        30.08R
RUIDOSO        CLOUDY    55  46  71 SE12      30.22R
SANTA FE       LGT RAIN  59  45  59 SW10      30.16S
TRUTH OR CONSE CLOUDY    69  49  48 NE12      30.06S
TUCUMCARI      PTCLDY    70  47  43 S5        30.07S
$$

USA.gov is the U.S. government's official web portal to all federal, state and local government web resources and services.